Flag Weather past 2 weeks in Fort Simpson, Northwest Territories, Canada

Now
0 °F

Partly sunny.


Feels Like: -19 °F
Forecast: -22 / 1 °F
Wind: 14 mph from North

Location: Fort Simpson

Current Time: Nov 26, 2014 at 1:34:03 PM

Latest Report: Nov 26, 2014 at 1:00 PM


Visibility: 15 mi

Pressure: 30.60 "Hg

Humidity: 78%

Dew point: -6 °F

Location of Fort SimpsonLocation

Historic Weather in Fort Simpson — Graph

°F

Fort Simpson temperature yesterday

Maximum temperature yesterday: -13 °F (at 2:00 PM)
Minimum temperature yesterday: -27 °F (at 2:00 AM)
Average temperature yesterday: -19 °F

Past Weeks' High & Low Weather Summary

 TemperatureHumidityPressure
High18 °F (Nov 15, 3:00 PM)93% (Nov 17, 9:00 PM)30.78 "Hg (Nov 17, 9:00 PM)
Low-27 °F (Nov 25, 2:00 AM)66% (Nov 11, 1:00 PM)29.70 "Hg (Nov 20, 1:00 PM)
Average0 °F79%30.25 "Hg
* Reported Nov 11 12:00 Noon — Nov 26 12:00 Noon, Fort Simpson, Weather by CustomWeather, © 2014

Note: Actual official high and low records may vary slightly from our data, if they occured in-between our weather recording intervals... More about our weather records

Advertising

Fort Simpson weather history for previous 24 hours

 ConditionsComfort  
Time TempWeatherWind HumidityBarometerVisibility
12:00 PM
Nov 26
1 °FPartly sunny.10 mph78%30.59 "Hg15 mi
11:00 AM1 °FPartly sunny.14 mph78%30.55 "Hg15 mi
10:00 AM-2 °FLight snow. Partly sunny.10 mph84%30.52 "Hg15 mi
9:00 AM0 °FLight snow. Overcast.14 mph78%30.49 "Hg10 mi
8:00 AM-6 °FLight snow. Passing clouds.2 mph77%30.47 "Hg12 mi
7:00 AM-6 °FLight snow. Passing clouds.6 mph77%30.43 "Hg15 mi
6:00 AM-9 °FLight snow. Passing clouds.6 mph77%30.42 "Hg15 mi
5:00 AM-11 °FLight snow. Passing clouds.8 mph70%30.40 "Hg15 mi
4:00 AM-13 °FLight snow. Overcast.8 mph69%30.39 "Hg10 mi
3:00 AM-18 °FLight snow. Overcast.3 mph75%30.36 "Hg12 mi
2:00 AM-22 °FPassing clouds.No wind68%30.35 "Hg15 mi
1:00 AM-22 °FClear.No wind68%30.34 "Hg15 mi
12:00 AM-24 °FClear.No wind68%30.32 "Hg15 mi
11:00 PM
Nov 25
-26 °FClear.No wind67%30.32 "Hg15 mi
10:00 PM-22 °FClear.No wind75%30.32 "Hg15 mi
9:00 PM-22 °FClear.2 mph68%30.31 "Hg15 mi
8:00 PM-18 °FClear.2 mph69%30.30 "Hg15 mi
7:00 PM-15 °FPassing clouds.3 mph69%30.31 "Hg15 mi
6:00 PM-15 °FPassing clouds.5 mph69%30.31 "Hg15 mi
5:00 PM-15 °FPassing clouds.6 mph69%30.32 "Hg15 mi
4:00 PM-15 °FPassing clouds.5 mph76%30.33 "Hg15 mi
3:00 PM-13 °FPassing clouds.6 mph69%30.35 "Hg15 mi
2:00 PM-13 °FPassing clouds.7 mph69%30.36 "Hg15 mi
1:00 PM-15 °FPassing clouds.9 mph76%30.37 "Hg15 mi
Weather by CustomWeather, © 2014

See weather overviewHow to use our weather pages